Regional Weather Roundup
Issued by NWS

Home | Current Version | Previous Version | Graphics & Text | Print | Product List | Glossary On
Versions: 1 2 3 4 5 6 7 8 9 10 11 12 13 14 15 16 17 18 19 20 21 22 23 24 25 26 27 28 29 30 31 32 33 34 35 36 37 38 39 40 41 42 43 44 45 46 47 48 49 50
000
ASUS43 KOAX 052102
RWRNE

WEATHER ROUNDUP FOR NEBRASKA
NATIONAL WEATHER SERVICE OMAHA NE
300 PM CST MON DEC 05 2016

NOTES: SATELLITE DATA IS BEING USED TO AUGMENT CLOUD COVER ABOVE
       12000 FEET.
       "FAIR" INDICATES FEW OR NO CLOUDS BELOW 12,000 FEET WITH NO
       SIGNIFICANT WEATHER AND/OR OBSTRUCTIONS TO VISIBILITY.

  * THESE STATIONS DO NOT REPORT WEATHER SUCH AS RAIN...SNOW OR FOG.

NEZ001>004-019>022-054>056-052200-
NEBRASKA PANHANDLE

CITY           SKY/WX    TMP DP  RH WIND       PRES   REMARKS
SCOTTSBLUFF    CLOUDY    32  15  49 NW28G36   29.76R WCI  18
ALLIANCE       PTSUNNY   31  18  58 NW23G36   29.69R WCI  18
CHADRON        LGT SNOW  27  20  75 N21G35    29.76R WCI  13
$$

NEZ057>060-069>072-079>082-052200-
SOUTHWEST NEBRASKA

CITY           SKY/WX    TMP DP  RH WIND       PRES   REMARKS
NORTH PLATTE   SUNNY     54  17  23 NW30G41   29.60R
IMPERIAL       MOSUNNY   50   9  19 NW33G41   29.63R
LEXINGTON      PTSUNNY   52  27  38 CALM      29.57S
MCCOOK         CLOUDY    48  24  39 NW6       29.62R
OGALLALA       CLOUDY    50  16  25 NW30G38   29.61S
$$

NEZ005>010-023>029-035>040-094-052200-
NORTH CENTRAL NEBRASKA

CITY           SKY/WX    TMP DP  RH WIND       PRES   REMARKS
VALENTINE      CLOUDY    30  24  78 NW25G35   29.66R WCI  16
AINSWORTH      CLOUDY    37  29  74 NW21G35   29.63R WCI  26
BROKEN BOW     MOSUNNY   56  28  34 N21G30    29.55R
O`NEILL        SUNNY     45  30  56 NW20      29.58R
ORD            MOSUNNY   49  27  42 CALM      29.56R
THEDFORD       PTSUNNY   41  31  67 NW22G29   29.64R
$$

NEZ041-046>049-061>064-073>077-083>087-052200-
SOUTH CENTRAL NEBRASKA

CITY           SKY/WX    TMP DP  RH WIND       PRES   REMARKS
GRAND ISLAND   CLOUDY    47  34  60 S18       29.58R
AURORA         CLOUDY    49  35  58 S15G21    29.58S
HASTINGS       MOSUNNY   49  34  56 S15G24    29.59S
HEBRON         SUNNY     51  37  57 S17G23    29.63F
HOLDREGE       MOSUNNY   50  29  45 S8        29.58R
KEARNEY *      PTSUNNY   48  30  49 S13       29.58R
YORK           CLOUDY    48  37  66 S21       29.60S
$$

NEZ011>018-030>034-042>045-052200-
NORTHEAST NEBRASKA

CITY           SKY/WX    TMP DP  RH WIND       PRES   REMARKS
NORFOLK        MOSUNNY   44  33  65 S8        29.57R
ALBION         CLOUDY    44  32  61 S7        29.58R
BLAIR          MOSUNNY   49  36  60 S23G32    29.61F
FREMONT        CLOUDY    49  35  59 S10G20    29.62S
TEKAMAH        CLOUDY    46  37  71 S12       29.62S
WAYNE          CLOUDY    44  35  70 S21       29.56R
$$

NEZ050>053-065>068-078-088>093-052200-
SOUTHEAST NEBRASKA

CITY           SKY/WX    TMP DP  RH WIND       PRES   REMARKS
LINCOLN        SUNNY     51  36  56 S21       29.62F
OMAHA EPPLEY   PTSUNNY   52  36  54 S22G35    29.63F
BEATRICE       SUNNY     54  32  44 S21       29.65F
FALLS CITY     SUNNY     50  37  61 S12G22    29.71S
NEBRASKA CITY  SUNNY     51  31  47 S18       29.69S
PLATTSMOUTH    SUNNY     51  30  44 S24G31    29.65F
$$

NEZ044-045-051>053-067-052200-
OMAHA AREA

CITY           SKY/WX    TMP DP  RH WIND       PRES   REMARKS
OMAHA EPPLEY   PTSUNNY   52  36  54 S22G35    29.63F
BLAIR          MOSUNNY   49  36  60 S23G32    29.61F
FREMONT        CLOUDY    49  35  59 S10G20    29.62S
MILLARD        MOSUNNY   52  35  51 S17G26    29.64F
OFFUTT AFB     MOSUNNY   52  37  55 S24G30    29.65F
PLATTSMOUTH    SUNNY     51  30  44 S24G31    29.65F
WAHOO          FAIR      49  36  60 S20       29.61F
$$



USA.gov is the U.S. government's official web portal to all federal, state and local government web resources and services.